Tracking 27122 objects as of 26-Mar-2023
HD Live streaming from Space Station
objects crossing your sky now

SL-14 R/B

Track SL-14 R/B now!
10-day predictions


NORAD ID: 16612
Int'l Code: 1986-018B
Perigee: 608.7 km
Apogee: 634.4 km
Inclination: 82.5 °
Period: 97.0 minutes
Semi major axis: 6992 km
RCS: 4.4703 m2 (large)
Launch date: February 19, 1986
Source: Commonwealth of Independent States (former USSR) (CIS)
Launch site: PLESETSK MISSILE AND SPACE COMPLEX (PKMTR)

Note: This is a ROCKET BODY
Your satellite tracking list
Your tracking list is empty




NASA's NSSDC Master Catalog

Two Line Element Set (TLE):
1 16612U 86018B   23084.84223464  .00000985  00000-0  11318-3 0  9998
2 16612  82.5142 118.6210 0018430  39.7219 320.5342 14.84738765883007
Source of the keplerian elements: AFSPC